This demonstration page uses our WeatherBlox Daily Observations layout. Learn more.

Left ArrowRight Arrow

Hourly Observations for June 4, 2019

Temp ( °F °C ) Dew Point ( °F °C ) Humidity (%) Winds ( mph kmh ) Pressure ( in mb ) Visibility ( mi km ) Precip ( " mm )
12:56 am 00:56 Cloudy 68 20 59 15 73 73 ESE 5 7 29.83 1010 10 16 0.00 0.00
1:56 am 01:56 Clear N/A N/A N/A SE 5 7 N/A 10 16 0.00 0.00
2:56 am 02:56 Cloudy 68 20 63 17 83 83 Calm 29.80 1009 10 16 0.00 0.00
3:56 am 03:56 Cloudy 70 21 64 18 83 83 SE 3 6 29.77 1008 10 16 0.00 0.00
4:29 am 04:29 Cloudy with Light Rain 70 21 64 18 83 83 Calm 29.78 1009 6 10 0.00 0.00
4:56 am 04:56 Clear N/A N/A N/A Calm N/A 10 16 0.00 0.00
5:56 am 05:56 Cloudy 70 21 64 18 83 83 SE 15 24 29.75 1007 10 16 0.00 0.00
6:56 am 06:56 Mostly Cloudy 68 20 64 18 88 88 Calm 29.78 1008 10 16 0.00 0.00
7:26 am 07:26 Mostly Cloudy with Light Rain 70 21 61 16 73 73 Calm 29.81 1010 7 11 0.00 0.00
7:56 am 07:56 Mostly Cloudy with Light Rain 73 23 61 16 65 65 Calm 29.82 1010 7 11 0.00 0.03
8:56 am 08:56 Mostly Cloudy with Light Rain 72 22 59 15 65 65 SSW 5 7 29.81 1010 7 11 0.00 0.03
9:35 am 09:35 Mostly Cloudy 72 22 61 16 69 69 SSE 3 6 29.81 1010 10 16 0.00 0.00
9:56 am 09:56 Mostly Cloudy 75 24 64 18 69 69 SSW 10 17 29.81 1010 10 16 0.00 0.00
10:56 am 10:56 Mostly Cloudy 75 24 66 19 74 74 S 7 11 29.78 1009 7 11 0.00 0.00
11:56 am 11:56 Mostly Cloudy 79 26 68 20 70 70 S 10 17 29.74 1007 7 11 0.00 0.00
12:56 pm 12:56 Partly Cloudy 82 28 70 21 66 66 SE 5 7 29.77 1008 7 11 0.00 0.00
1:56 pm 13:56 Mostly Sunny 82 28 68 20 62 62 ESE 3 6 29.76 1008 7 11 0.00 0.00
2:56 pm 14:56 Mostly Sunny 86 30 64 18 49 49 SSE 6 9 29.69 1006 10 16 0.00 0.00
3:56 pm 15:56 Sunny 90 32 61 16 38 38 SSW 8 13 29.68 1005 10 16 0.00 0.00
4:56 pm 16:56 Mostly Sunny 90 32 61 16 38 38 WSW 6 9 29.67 1005 10 16 0.00 0.00
5:56 pm 17:56 Mostly Sunny 90 32 63 17 41 41 WSW 7 11 29.65 1004 10 16 0.00 0.00
6:56 pm 18:56 Mostly Sunny 88 31 63 17 43 43 SW 3 6 29.62 1003 10 16 0.00 0.00
7:56 pm 19:56 Mostly Sunny 86 30 61 16 43 43 Calm 29.62 1003 10 16 0.00 0.00
8:56 pm 20:56 Clear 82 28 63 17 51 51 Calm 29.64 1004 10 16 0.00 0.00
9:56 pm 21:56 Mostly Clear 81 27 64 18 58 58 Calm 29.67 1005 10 16 0.00 0.00
10:56 pm 22:56 Mostly Clear 77 25 66 19 69 69 Calm 29.67 1005 10 16 0.00 0.00
11:56 pm 23:56 Mostly Clear 77 25 64 18 65 65 Calm 29.67 1005 10 16 0.00 0.00

Powered by AerisWeather